Вернуться в каталог

FENGYUN 1C DEB

АктивенSSO
NORAD 36279·DEBRIS·🇨🇳 China

Запущен May 10, 1999 с Taiyuan Satellite Launch Center

Loading…

Ближайшие Пролёты (ближайшие 24 часа)

TLE

СвежийSource: Space-Track

Эпоха: Sep 12, 2026, 15:17 UTC

1 36279U 99025DXG 26255.63699534  .00000108  00000-0  76394-4 0  9999
2 36279  98.5933 228.0405 0061752 350.5683   9.4327 14.14857705929128

Отслеживайте FENGYUN 1C DEB в реальном времени с AllMySat

Download on the App Store